QZS-6 (MICHIBIKI-6)

Last updated on Thu Oct 30 2025 00:02:52 GMT+0000 (Coordinated Universal Time)

1 62876U 25023A 25302.16780787 -.00000224 00000+0 00000+0 0 9994 2 62876 0.0533 33.3026 0001727 181.8008 333.6140 1.00274000 2648
UTC large
Height (km)
Speed (km/s)
/
Latitude / Longitude
Inclination (degrees)
Orbital Period (minutes)
Azimuth
Elevation
Range (km)
Doppler Factor

Next 0 passes for location: London (51.5072 / 0.1276)

Sorry there are no passes over London.